Flag for Canada Weather past 2 weeks in Ottawa, Ontario, Canada

Now
16 °F

Partly sunny.


Feels Like: 3 °F
Forecast: N/A
Wind: 12 mph from North

Location: Ottawa Int'L. Ont.

Current Time: Jan 27, 2015 at 4:00:57 PM

Latest Report: Jan 27, 2015 at 3:00 PM


Visibility: 15 mi

Pressure: 30.09 "Hg

Humidity: 45%

Dew point: -2 °F

Location of OttawaLocation

Historic Weather in Ottawa — Graph

°F

Ottawa temperature yesterday

Maximum temperature yesterday: 7 °F (at 2:00 PM)
Minimum temperature yesterday: -9 °F (at 5:00 AM)
Average temperature yesterday: 0 °F

Past Weeks' High & Low Weather Summary

 TemperatureHumidityPressure
High39 °F (Jan 18, 2:00 PM)100% (Jan 19, 12:00 AM)30.86 "Hg (Jan 19, 12:00 AM)
Low-15 °F (Jan 14, 4:00 AM)44% (Jan 27, 1:00 PM)29.34 "Hg (Jan 24, 11:00 PM)
Average9 °F73%30.07 "Hg
* Reported Jan 12 2:00 PM — Jan 27 2:00 PM, Ottawa, Weather by CustomWeather, © 2014

Note: Actual official high and low records may vary slightly from our data, if they occured in-between our weather recording intervals... More about our weather records

Advertising

Ottawa weather history for previous 24 hours

 ConditionsComfort  
Time TempWeatherWind HumidityBarometerVisibility
2:00 PM
Jan 27
14 °FPartly sunny.14 mph44%30.09 "Hg15 mi
1:00 PM14 °FPartly sunny.12 mph44%30.10 "Hg15 mi
12:00 PM10 °FPartly sunny.12 mph47%30.11 "Hg15 mi
11:00 AM9 °FPartly sunny.13 mph51%30.14 "Hg15 mi
10:00 AM5 °FPartly sunny.15 mph55%30.15 "Hg15 mi
9:00 AM3 °FPartly sunny.13 mph55%30.15 "Hg15 mi
8:00 AM1 °FPartly sunny.10 mph65%30.14 "Hg15 mi
7:00 AM1 °FPassing clouds.9 mph65%30.12 "Hg15 mi
6:00 AM3 °FPassing clouds.10 mph60%30.11 "Hg15 mi
5:00 AM3 °FPassing clouds.10 mph60%30.11 "Hg15 mi
4:00 AM3 °FPassing clouds.12 mph60%30.10 "Hg15 mi
3:00 AM3 °FPassing clouds.10 mph60%30.11 "Hg15 mi
2:00 AM3 °FPassing clouds.9 mph60%30.12 "Hg15 mi
1:00 AM1 °FPassing clouds.5 mph60%30.14 "Hg15 mi
12:00 AM1 °FPassing clouds.8 mph65%30.16 "Hg15 mi
11:00 PM
Jan 26
1 °FMostly cloudy.8 mph65%30.18 "Hg15 mi
10:00 PM1 °FPassing clouds.9 mph60%30.18 "Hg15 mi
9:00 PM3 °FPassing clouds.14 mph55%30.18 "Hg15 mi
8:00 PM3 °FPassing clouds.15 mph55%30.18 "Hg15 mi
7:00 PM1 °FPassing clouds.10 mph60%30.20 "Hg15 mi
6:00 PM3 °FPassing clouds.12 mph55%30.19 "Hg15 mi
5:00 PM5 °FScattered clouds.12 mph55%30.18 "Hg15 mi
4:00 PM7 °FMore clouds than sun.9 mph56%30.16 "Hg15 mi
Weather by CustomWeather, © 2014

See weather overviewHow to use our weather pages